Voltar ao catálogo

STARLINK-36873

AtivoComunicaçõesVLEO
NORAD 67948·PAYLOAD·🇺🇸 United States

Lançado Feb 24, 2026 de Vandenberg Space Force Base

Loading…

Próximas Passagens (próximas 24 horas)

TLE

AtualizadoSource: CelesTrak SupGP

Época: Sep 14, 2026, 20:56 UTC

1 67948C 26037S   26257.87270833  .00019357  00000+0  70104-3 0  2578
2 67948  43.0029 201.9296 0001265 263.5973 263.7648 15.27571497    17

Acompanhe STARLINK-36873 em tempo real com AllMySat

Download on the App Store